Flag for Israel Weather past 2 weeks in Beersheba, Israel

Now
73 °F

Passing clouds.


Feels Like: 75 °F
Forecast: 66 / 87 °F
Wind: 1 mph from North

Location: Ben Gurion International Airport

Current Time: Sep 20, 2014 at 7:59:36 AM

Latest Report: Sep 20, 2014 at 7:20 AM


Visibility: N/A

Pressure: 29.92 "Hg

Humidity: 74%

Dew point: 64 °F

Location of BeershebaLocation

Historic Weather in Beersheba — Graph

°F

Beersheba temperature yesterday

Maximum temperature yesterday: 86 °F (at 12:50 PM)
Minimum temperature yesterday: 72 °F (at 5:20 AM)
Average temperature yesterday: 79 °F

Past Weeks' High & Low Weather Summary

 TemperatureHumidityPressure
High100 °F (Sep 17, 1:20 PM)83% (Sep 16, 4:20 AM)29.98 "Hg (Sep 16, 4:20 AM)
Low70 °F (Sep 17, 6:20 AM)20% (Sep 17, 10:50 AM)29.68 "Hg (Sep 17, 3:50 PM)
Average81 °F63%29.87 "Hg
* Reported Sep 5 6:20 AM — Sep 20 6:50 AM, Beersheba, Weather by CustomWeather, © 2014

Note: Actual official high and low records may vary slightly from our data, if they occured in-between our weather recording intervals... More about our weather records

Advertising

Beersheba weather history for previous 24 hours

 ConditionsComfort  
Time TempWeatherWind HumidityBarometerVisibility
6:50 AM
Sep 20
72 °FPassing clouds.3 mph73%29.92 "HgN/A
6:20 AM72 °FPassing clouds.3 mph73%29.92 "HgN/A
5:50 AM73 °FPassing clouds.3 mph69%29.92 "HgN/A
5:20 AM73 °FPassing clouds.2 mph69%29.92 "HgN/A
4:50 AM73 °FPassing clouds.2 mph69%29.92 "HgN/A
4:20 AM73 °FPassing clouds.3 mph69%29.92 "HgN/A
3:50 AM73 °FPassing clouds.6 mph74%29.92 "HgN/A
2:50 AM73 °FPassing clouds.7 mph69%29.92 "HgN/A
2:20 AM73 °FPassing clouds.3 mph74%29.92 "HgN/A
1:50 AM73 °FPassing clouds.1 mph74%29.92 "HgN/A
1:20 AM75 °FPassing clouds.3 mph69%29.95 "HgN/A
12:50 AM75 °FPassing clouds.2 mph69%29.95 "HgN/A
12:20 AM75 °FPassing clouds.3 mph69%29.95 "HgN/A
11:50 PM
Sep 19
75 °FPassing clouds.2 mph69%29.95 "HgN/A
11:20 PM77 °FPassing clouds.2 mph65%29.95 "HgN/A
10:50 PM77 °FPassing clouds.2 mph65%29.98 "HgN/A
10:20 PM77 °FPassing clouds.1 mph65%29.98 "HgN/A
9:50 PM77 °FPassing clouds.3 mph65%29.98 "HgN/A
9:20 PM79 °FPassing clouds.5 mph61%29.98 "HgN/A
8:50 PM79 °FPassing clouds.6 mph65%29.98 "HgN/A
8:20 PM79 °FPassing clouds.6 mph65%29.95 "HgN/A
7:50 PM79 °FPassing clouds.6 mph65%29.95 "HgN/A
7:20 PM79 °FPassing clouds.8 mph65%29.95 "HgN/A
6:50 PM81 °FPassing clouds.9 mph62%29.95 "HgN/A
6:20 PM81 °FPassing clouds.12 mph62%29.95 "HgN/A
5:50 PM82 °FPassing clouds.13 mph58%29.95 "HgN/A
5:20 PM84 °FPassing clouds.12 mph51%29.92 "HgN/A
4:50 PM84 °FPassing clouds.13 mph51%29.92 "HgN/A
4:20 PM84 °FPassing clouds.13 mph55%29.92 "HgN/A
3:50 PM84 °FPassing clouds.14 mph55%29.92 "HgN/A
3:20 PM84 °FPassing clouds.14 mph51%29.92 "HgN/A
2:50 PM84 °FPassing clouds.12 mph51%29.92 "HgN/A
2:20 PM86 °FPassing clouds.13 mph46%29.95 "HgN/A
1:50 PM86 °FPassing clouds.13 mph46%29.95 "HgN/A
1:20 PM86 °FPassing clouds.13 mph46%29.95 "HgN/A
12:50 PM86 °FPassing clouds.14 mph49%29.95 "HgN/A
12:20 PM84 °FScattered clouds.12 mph51%29.95 "HgN/A
11:50 AM84 °FScattered clouds.10 mph51%29.98 "HgN/A
11:20 AM84 °FScattered clouds.10 mph55%29.98 "HgN/A
10:50 AM84 °FScattered clouds.7 mph51%29.98 "HgN/A
10:20 AM84 °FScattered clouds.3 mph51%29.98 "HgN/A
9:50 AM82 °FScattered clouds.6 mph55%29.98 "HgN/A
9:20 AM82 °FScattered clouds.2 mph58%29.98 "HgN/A
8:50 AM81 °FScattered clouds.3 mph62%29.98 "HgN/A
8:20 AM79 °FPassing clouds.2 mph65%29.98 "HgN/A
7:50 AM75 °FPassing clouds.3 mph69%29.95 "HgN/A
7:20 AM73 °FPassing clouds.3 mph74%29.95 "HgN/A
Weather by CustomWeather, © 2014

See weather overviewHow to use our weather pages